[[{"header":{"parameterUnit":"m.s-1","parameterCategory":1,"la1":30.2991,"la2":30.254,"lo1":-89.0895,"lo2":-89.0444,"dy":0.0017,"dx":0.0017,"nx":28,"ny":28,"refTime":"2025-07-25T03:00:00:Z","depth":0,"parameterNumber":2,"parameterNumberName":"U-component_of_WINDS"},"data":[0,0,0,0,0,0,0,0,0,0,0,0,0,0,0,0,0,0,0,0,0,0,0,0,0,0,0,0,0,0,0,0,0,0,0,0,0,0,0,0,0,0,0,0,0,0,0,0,0,0,0,0,0,0,0,0,0,0,-0.6751,-0.6751,0,-0.6733,-0.6732,-0.6732,-0.6727,-0.6727,-0.6727,-0.6727,-0.6707,-0.6706,-0.6705,0,0,0,0,0,0,0,0,0,0,0,0,0,-0.6782,-0.6781,-0.6751,-0.6751,-0.6751,-0.6733,-0.6732,-0.6732,-0.6727,-0.6727,-0.6727,-0.6727,-0.6707,-0.6706,-0.6705,0,0,0,0,0,0,0,0,0,0,0,0,0,-0.6766,-0.6781,-0.6751,-0.6746,-0.6745,-0.6733,-0.6732,-0.6732,-0.6727,-0.6727,-0.6727,-0.6727,-0.6707,-0.6706,-0.6705,-0.6696,0,0,-0.6702,-0.6702,0,0,0,0,0,0,0,0,-0.6767,-0.6765,-0.6747,-0.6746,-0.6745,-0.6732,-0.6736,-0.672,-0.6727,-0.6734,-0.6727,-0.6727,-0.6715,-0.6713,-0.6709,-0.6696,-0.6695,-0.6702,-0.6702,-0.6701,-0.6701,0,0,0,0,0,0,0,-0.6768,-0.6766,-0.6744,-0.6747,-0.6746,-0.6744,-0.6742,-0.6733,-0.6724,-0.6733,-0.6733,-0.6731,-0.6715,-0.671,-0.6709,-0.6694,-0.6702,-0.6701,-0.6701,-0.67,-0.6673,-0.6673,0,0,0,0,0,0,-0.677,-0.6767,-0.6744,-0.6743,-0.6757,-0.6744,-0.6741,-0.6736,-0.6724,-0.6722,-0.673,-0.673,-0.6712,-0.671,-0.6708,-0.6698,-0.6701,-0.67,-0.67,-0.6674,-0.6673,-0.6673,0,0,0,0,0,0,-0.6771,-0.6768,-0.6745,-0.6755,-0.6752,-0.6743,-0.6737,-0.6736,-0.6732,-0.6722,-0.672,-0.6728,-0.6712,-0.671,-0.67,-0.6697,-0.67,-0.6699,-0.6674,-0.6674,-0.6673,-0.6677,0,0,0,0,0,0,-0.6772,-0.6769,-0.6765,-0.6755,-0.6751,-0.6737,-0.6737,-0.6735,-0.673,-0.673,-0.6719,-0.6717,-0.6712,-0.6701,-0.6699,-0.6696,-0.6698,-0.6674,-0.6674,-0.6673,-0.6677,-0.6677,-0.6676,0,0,0,0,0,-0.6773,-0.6766,-0.6765,-0.6762,-0.6747,-0.6737,-0.6735,-0.6729,-0.673,-0.6727,-0.672,-0.6718,-0.6698,-0.67,-0.6698,-0.6694,-0.6674,-0.6674,-0.6673,-0.6677,-0.6677,-0.6676,0,0,0,0,0,0,-0.6775,-0.6765,-0.6763,-0.6753,-0.6746,-0.6736,-0.6731,-0.6729,-0.6721,-0.6721,-0.6714,-0.6712,-0.6703,-0.6697,-0.67,-0.6686,-0.6686,-0.6685,-0.6689,-0.6689,-0.6689,-0.669,-0.6698,0,0,0,0,0,-0.6775,-0.6768,-0.6759,-0.6751,-0.6748,-0.674,-0.6736,-0.6732,-0.6724,-0.6721,-0.6714,-0.6707,-0.6699,-0.6694,-0.6686,-0.6676,-0.6674,-0.6673,-0.6672,-0.6672,-0.6672,-0.6667,-0.6666,-0.6672,-0.6672,-0.6672,0,0,-0.6774,-0.6767,-0.6763,-0.6751,-0.6745,-0.6738,-0.6738,-0.673,-0.6725,-0.672,-0.671,-0.6705,-0.6696,-0.6687,-0.6682,-0.6682,-0.667,-0.6672,-0.6672,-0.6671,-0.6667,-0.6666,-0.6666,-0.6672,-0.6672,-0.6672,0,0,-0.6768,-0.6762,-0.6755,-0.6749,-0.6741,-0.6736,-0.6735,-0.6725,-0.6722,-0.6713,-0.6709,-0.6703,-0.6689,-0.6684,-0.6679,-0.6672,-0.667,-0.667,-0.6669,-0.6665,-0.6664,-0.6664,-0.6662,-0.6661,-0.6669,-0.6669,-0.6669,0,-0.6767,-0.6756,-0.6751,-0.6744,-0.674,-0.6736,-0.6729,-0.6724,-0.6713,-0.671,-0.671,-0.6694,-0.6688,-0.6677,-0.6676,-0.6672,-0.667,-0.6671,-0.6665,-0.6664,-0.6664,-0.6662,-0.6661,-0.6669,-0.6669,-0.6669,-0.6669,0,-0.6756,-0.6749,-0.6745,-0.6735,-0.673,-0.6723,-0.6717,-0.6713,-0.671,-0.6705,-0.6696,-0.6689,-0.668,-0.6677,-0.6674,-0.6667,-0.6667,-0.6666,-0.6666,-0.6663,-0.6661,-0.6661,-0.667,-0.6669,-0.6669,-0.6669,0,0,-0.675,-0.6739,-0.6738,-0.6734,-0.6725,-0.672,-0.6713,-0.6705,-0.6701,-0.6694,-0.6689,-0.6678,-0.6677,-0.6672,-0.6668,-0.6665,-0.6661,-0.6664,-0.6664,-0.6664,-0.6653,-0.6654,-0.6653,-0.6659,-0.6659,-0.6659,-0.6654,0,-0.6743,-0.6731,-0.6727,-0.6718,-0.6711,-0.6708,-0.6703,-0.6697,-0.6693,-0.6687,-0.6682,-0.6675,-0.6674,-0.6671,-0.6667,-0.6662,-0.6658,-0.6662,-0.6654,-0.6654,-0.6656,-0.6652,-0.6653,-0.6648,-0.6653,-0.6653,-0.6653,0,-0.6733,-0.6727,-0.6717,-0.671,-0.6707,-0.6702,-0.6695,-0.669,-0.6683,-0.6681,-0.6675,-0.6672,-0.6665,-0.6666,-0.6657,-0.666,-0.6656,-0.6653,-0.6653,-0.6652,-0.6653,-0.6651,-0.6646,-0.6646,-0.6652,-0.6652,-0.6652,0,-0.6731,-0.672,-0.6713,-0.671,-0.6701,-0.6698,-0.6694,-0.6688,-0.6684,-0.6677,-0.6675,-0.6668,-0.6664,-0.6658,-0.6654,-0.6655,-0.6645,-0.6645,-0.6643,-0.6643,-0.664,-0.6641,-0.6635,-0.6638,-0.6638,-0.6638,-0.6638,0,-0.6723,-0.6717,-0.6712,-0.6707,-0.67,-0.6696,-0.669,-0.6686,-0.6681,-0.6675,-0.6672,-0.6667,-0.6662,-0.6656,-0.6652,-0.6646,-0.6644,-0.6641,-0.6641,-0.6642,-0.6642,-0.6639,-0.6639,-0.6638,-0.6638,-0.6638,-0.6638,0,-0.6719,-0.6715,-0.6707,-0.67,-0.6698,-0.6694,-0.6688,-0.6684,-0.668,-0.6674,-0.6672,-0.6666,-0.6659,-0.6654,-0.6646,-0.6643,-0.6636,-0.6635,-0.6639,-0.6638,-0.6636,-0.6636,-0.6629,-0.6628,-0.6631,-0.6631,-0.6631,0,-0.6714,-0.671,-0.6703,-0.67,-0.6696,-0.6691,-0.6687,-0.6683,-0.6679,-0.6672,-0.6669,-0.6662,-0.6657,-0.6647,-0.6642,-0.6635,-0.6634,-0.6632,-0.6633,-0.6635,-0.6634,-0.6635,-0.6635,-0.6632,-0.6632,-0.6632,-0.6632,0,-0.6707,-0.6706,-0.6701,-0.6695,-0.6691,-0.6686,-0.6681,-0.6678,-0.6674,-0.6669,-0.6663,-0.6659,-0.6651,-0.6645,-0.6638,-0.6634,-0.6632,-0.6631,-0.6631,-0.6632,-0.6634,-0.6633,-0.6638,-0.6631,-0.6631,-0.6631,-0.6631,-0.6631,-0.6703,-0.6699,-0.6694,-0.6689,-0.6685,-0.6681,-0.6677,-0.6673,-0.6668,-0.6662,-0.6659,-0.6653,-0.6648,-0.6639,-0.6635,-0.663,-0.663,-0.6629,-0.6628,-0.6628,-0.6628,-0.6635,-0.6629,-0.6629,-0.6629,-0.6629,-0.6629,0,-0.6696,-0.6693,-0.6688,-0.6682,-0.6678,-0.6677,-0.6672,-0.6669,-0.6663,-0.6659,-0.6654,-0.6647,-0.6642,-0.6636,-0.6631,-0.6628,-0.6627,-0.6626,-0.6626,-0.6626,-0.6629,-0.663,-0.6627,-0.6627,-0.6627,-0.6627,-0.6627,-0.6627,-0.6692,-0.6686,-0.6684,-0.6676,-0.6673,-0.6667,-0.6665,-0.6661,-0.6657,-0.665,-0.6646,-0.6643,-0.6638,-0.6632,-0.6627,-0.6626,-0.6624,-0.6624,-0.6622,-0.6625,-0.6625,-0.6626,-0.6627,-0.6623,-0.6623,-0.662,-0.662,-0.662]},{"header":{"parameterUnit":"m.s-1","parameterCategory":1,"la1":30.2991,"la2":30.254,"lo1":-89.0895,"lo2":-89.0444,"dy":0.0017,"dx":0.0017,"nx":28,"ny":28,"refTime":"2025-07-25T03:00:00:Z","depth":0,"parameterNumber":3,"parameterNumberName":"V-component_of_WINDS"},"data":[0,0,0,0,0,0,0,0,0,0,0,0,0,0,0,0,0,0,0,0,0,0,0,0,0,0,0,0,0,0,0,0,0,0,0,0,0,0,0,0,0,0,0,0,0,0,0,0,0,0,0,0,0,0,0,0,0,0,5.1137,5.1136,0,5.1049,5.1048,5.1047,5.0909,5.0906,5.0904,5.0901,5.0814,5.0814,5.0814,0,0,0,0,0,0,0,0,0,0,0,0,0,5.1185,5.1185,5.1137,5.1136,5.1134,5.1049,5.1048,5.1047,5.0909,5.0906,5.0903,5.09,5.0814,5.0814,5.0814,0,0,0,0,0,0,0,0,0,0,0,0,0,5.1138,5.1185,5.1137,5.1055,5.1047,5.105,5.1048,5.1047,5.091,5.0906,5.0902,5.0899,5.0814,5.0814,5.0814,5.089,0,0,5.0814,5.0814,0,0,0,0,0,0,0,0,5.1141,5.1136,5.1068,5.1061,5.1052,5.0986,5.1033,5.0994,5.0911,5.0962,5.0901,5.0897,5.0875,5.0869,5.0861,5.0886,5.0882,5.0814,5.0814,5.0814,5.0814,0,0,0,0,0,0,0,5.1144,5.1139,5.1102,5.1068,5.1058,5.1024,5.1013,5.1025,5.0941,5.0957,5.0947,5.0939,5.0869,5.0862,5.0858,5.0881,5.0814,5.0814,5.0814,5.0814,5.096,5.0964,0,0,0,0,0,0,5.1159,5.1143,5.1105,5.1099,5.1088,5.1026,5.1014,5.1011,5.094,5.0926,5.0942,5.0932,5.0864,5.0858,5.0855,5.0936,5.0814,5.0814,5.0815,5.0956,5.0961,5.0965,0,0,0,0,0,0,5.1161,5.1157,5.1108,5.1118,5.1109,5.1029,5.1027,5.1011,5.1003,5.0928,5.0913,5.0949,5.086,5.0855,5.0881,5.0931,5.0814,5.0815,5.0952,5.0957,5.0963,5.1101,0,0,0,0,0,0,5.1163,5.1159,5.1186,5.112,5.1109,5.1137,5.103,5.1012,5.1003,5.099,5.0931,5.0918,5.0857,5.0882,5.0881,5.0929,5.0815,5.0947,5.0954,5.0961,5.1091,5.1111,5.1127,0,0,0,0,0,5.1165,5.123,5.1188,5.1185,5.1142,5.114,5.1134,5.1062,5.1008,5.1035,5.0987,5.092,5.0926,5.0886,5.0884,5.0932,5.0943,5.0952,5.096,5.1083,5.1107,5.1127,0,0,0,0,0,0,5.1305,5.1219,5.1173,5.1218,5.1187,5.1116,5.1148,5.1089,5.1073,5.1062,5.0974,5.0962,5.0999,5.0969,5.0925,5.1,5.0924,5.0933,5.1018,5.104,5.1058,5.1063,5.0815,0,0,0,0,0,5.1341,5.1346,5.1271,5.1318,5.1305,5.123,5.1226,5.1173,5.1138,5.1124,5.1077,5.1046,5.1041,5.1039,5.103,5.1087,5.1071,5.1119,5.1137,5.1152,5.116,5.1185,5.1205,5.0993,5.0993,5.0993,0,0,5.1416,5.1369,5.1378,5.1345,5.1314,5.1321,5.122,5.1231,5.1235,5.1126,5.1147,5.1112,5.1072,5.1113,5.1129,5.1089,5.1215,5.1163,5.1176,5.1175,5.1196,5.1216,5.1234,5.0999,5.0998,5.0997,0,0,5.1554,5.152,5.1554,5.1526,5.1481,5.143,5.1439,5.1377,5.1349,5.1369,5.1287,5.1291,5.1284,5.1257,5.1243,5.1371,5.1308,5.1371,5.1463,5.1488,5.1505,5.1519,5.1562,5.1578,5.1379,5.138,5.138,0,5.1652,5.1657,5.158,5.1595,5.1583,5.1484,5.1517,5.1494,5.1449,5.1443,5.1398,5.1386,5.1352,5.1384,5.1415,5.1408,5.1414,5.1376,5.1509,5.1522,5.1534,5.1574,5.1591,5.1387,5.1386,5.1386,5.1385,0,5.1779,5.1785,5.1818,5.1775,5.1767,5.1792,5.1717,5.1718,5.1666,5.162,5.1641,5.1597,5.1576,5.158,5.153,5.1605,5.1581,5.1525,5.1446,5.1563,5.1599,5.1614,5.1398,5.1395,5.1393,5.1391,0,0,5.2002,5.1915,5.1928,5.1907,5.185,5.1853,5.1874,5.1852,5.1853,5.1826,5.184,5.1836,5.1782,5.1766,5.1712,5.1735,5.1836,5.1675,5.1673,5.1704,5.1912,5.1954,5.1973,5.1795,5.1797,5.18,5.1915,0,5.2126,5.2154,5.2085,5.213,5.2133,5.204,5.2057,5.2024,5.1982,5.1979,5.1932,5.193,5.1861,5.185,5.1868,5.182,5.1876,5.1811,5.1805,5.1806,5.1815,5.1992,5.2036,5.2146,5.1929,5.1931,5.1933,0,5.2274,5.2253,5.2299,5.2238,5.2236,5.2253,5.2227,5.2226,5.2186,5.2154,5.2136,5.2073,5.2087,5.2014,5.2032,5.1989,5.1983,5.1959,5.1961,5.1956,5.1875,5.1989,5.218,5.2196,5.1955,5.1953,5.1951,0,5.2428,5.2412,5.2436,5.2421,5.2352,5.2365,5.2337,5.2294,5.2285,5.2262,5.2255,5.2236,5.2225,5.2211,5.2144,5.2097,5.2169,5.2091,5.2141,5.2143,5.2159,5.2158,5.235,5.216,5.216,5.216,5.2159,0,5.2573,5.2604,5.2504,5.2519,5.2551,5.2471,5.2504,5.2467,5.2429,5.2434,5.2354,5.236,5.2273,5.227,5.2218,5.2239,5.2236,5.2209,5.2194,5.2215,5.2218,5.2208,5.2197,5.2164,5.2163,5.2162,5.2161,0,5.2749,5.2684,5.2704,5.2636,5.2619,5.2646,5.2587,5.2598,5.2551,5.2559,5.2556,5.2482,5.2475,5.2407,5.2385,5.235,5.239,5.2362,5.2403,5.2393,5.2446,5.2441,5.2636,5.2656,5.2457,5.2459,5.246,0,5.2844,5.2865,5.28,5.2797,5.2772,5.277,5.276,5.2682,5.2675,5.2631,5.2647,5.2633,5.2617,5.2609,5.2553,5.2535,5.2504,5.2574,5.2501,5.252,5.2502,5.25,5.2501,5.2588,5.2591,5.2593,5.2595,0,5.3019,5.2985,5.2974,5.2951,5.2941,5.292,5.2894,5.2896,5.2811,5.2807,5.2797,5.2785,5.2762,5.2748,5.272,5.269,5.2628,5.2618,5.2629,5.2648,5.267,5.2656,5.2442,5.2614,5.2612,5.261,5.2609,5.2609,5.3155,5.3168,5.3124,5.3114,5.3086,5.3063,5.3068,5.3022,5.3013,5.2987,5.2942,5.2939,5.2897,5.2853,5.2829,5.2825,5.2788,5.2804,5.2807,5.2812,5.2822,5.2673,5.282,5.2819,5.2819,5.2818,5.2818,0,5.3322,5.3289,5.3281,5.3246,5.3238,5.318,5.3148,5.3144,5.3143,5.3109,5.3095,5.3084,5.3069,5.3013,5.2992,5.3,5.297,5.2997,5.2994,5.2988,5.2857,5.2849,5.302,5.302,5.302,5.302,5.302,5.302,5.3409,5.3428,5.339,5.3394,5.336,5.3356,5.3342,5.332,5.3293,5.3283,5.3271,5.3234,5.3191,5.3166,5.315,5.3134,5.3129,5.3164,5.3138,5.3017,5.2997,5.2979,5.297,5.3165,5.3165,5.3269,5.327,5.3271]}]]